Location: Lafig�re
(44.4503°N, 4.0357°E)
Time: 07:11:04
(UTC+00:00)

Cosmos 1092 Rocket - Pass Details

Date: 25 January 2021
Orbit: 954 x 994 km, 83.0° (Epoch: 08 March)

Event Time Altitude Azimuth Distance (km) Brightness Sun altitude
Rises 05:25:18 0° 350° (N) 3,644 6.8 -18.5°
Reaches altitude 10° 05:27:48 10° 350° (N) 2,696 6.1 -18.1°
Maximum altitude 05:33:58 79° 265° (W) 981 3.9 -17.0°
Drops below altitude 10° 05:40:08 10° 179° (S) 2,697 6.5 -15.9°
Sets 05:42:37 0° 178° (S) 3,645 7.2 -15.5°
